User: anonymous   Login
Location: Prairie State College
(41.5244°N, 87.6382°W)
Time: 04:57:07
(UTC-05:00)
Language:

Cosmos 1943 - Orbit

View from above orbital plane
View from above orbital plane
View from above satellite
View from above satellite

Ground track
Ground track

The orbit data is extracted from the following two-line orbital elements,

1 19119U 88039A   16177.88803591 -.00000066  00000-0 -92379-5 0  9992
2 19119  71.0037 129.9963 0013563 244.9120 129.8466 14.15069775451696
Epoch (UTC): 25 June 2016 21:18:46
Eccentricity: 0.0013563
inclination: 71.0037°
perigee height: 832 km
apogee height: 852 km
right ascension of ascending node: 129.9963°
argument of perigee: 244.9120°
revolutions per day: 14.15069775
mean anomaly at epoch: 129.8466°
orbit number at epoch: 45169

The dashed part of the orbit path shows where the satellite is in the earth's shadow,  

DLR